TimePST,TemperatureF,Dew PointF,Humidity,Sea Level PressureIn,VisibilityMPH,Wind Direction,Wind SpeedMPH,Gust SpeedMPH,PrecipitationIn,Events,Conditions,WindDirDegrees,DateUTC
12:15 AM,53.6,48.2,82,30.13,10.0,NNW,3.5,-,N/A,,Overcast,340,2013-03-03 08:15:00
12:35 AM,53.6,48.2,82,30.13,10.0,Calm,Calm,-,N/A,,Overcast,0,2013-03-03 08:35:00
12:55 AM,53.6,48.2,82,30.12,10.0,Calm,Calm,-,N/A,,Overcast,0,2013-03-03 08:55:00
1:15 AM,53.6,48.2,82,30.12,10.0,Calm,Calm,-,N/A,,Overcast,0,2013-03-03 09:15:00
1:35 AM,53.6,48.2,82,30.11,10.0,NNE,4.6,-,N/A,,Overcast,30,2013-03-03 09:35:00
1:55 AM,53.6,48.2,82,30.12,10.0,NW,3.5,-,N/A,,Overcast,310,2013-03-03 09:55:00
2:15 AM,53.6,48.2,82,30.12,10.0,Calm,Calm,-,N/A,,Overcast,0,2013-03-03 10:15:00
2:35 AM,53.6,48.2,82,30.11,10.0,SSE,5.8,-,N/A,,Overcast,150,2013-03-03 10:35:00
2:55 AM,51.8,48.2,88,30.11,10.0,SSE,4.6,-,N/A,,Overcast,160,2013-03-03 10:55:00
3:10 AM,51.8,48.2,88,30.10,10.0,SSE,4.6,-,N/A,,Overcast,150,2013-03-03 11:10:00
3:35 AM,50.0,48.2,94,30.11,10.0,SE,5.8,-,N/A,,Overcast,130,2013-03-03 11:35:00
4:15 AM,51.8,48.2,88,30.11,10.0,SSE,5.8,-,N/A,,Overcast,150,2013-03-03 12:15:00
4:35 AM,50.0,48.2,94,30.11,10.0,SE,8.1,-,N/A,,Overcast,140,2013-03-03 12:35:00
4:55 AM,51.8,48.2,88,30.10,10.0,SE,8.1,-,N/A,,Mostly Cloudy,140,2013-03-03 12:55:00
5:15 AM,50.0,48.2,94,30.11,10.0,SSE,10.4,-,N/A,,Mostly Cloudy,150,2013-03-03 13:15:00
5:35 AM,50.0,50.0,100,30.11,10.0,South,6.9,-,N/A,,Overcast,170,2013-03-03 13:35:00
5:55 AM,50.0,50.0,100,30.11,9.0,SSE,10.4,-,N/A,,Overcast,150,2013-03-03 13:55:00
6:15 AM,50.0,50.0,100,30.10,8.0,SE,9.2,-,N/A,,Overcast,140,2013-03-03 14:15:00
6:35 AM,50.0,50.0,100,30.11,8.0,South,9.2,-,N/A,,Overcast,170,2013-03-03 14:35:00
6:55 AM,50.0,50.0,100,30.11,5.0,South,8.1,-,N/A,,Overcast,170,2013-03-03 14:55:00
7:15 AM,50.0,50.0,100,30.11,5.0,SE,9.2,-,N/A,,Overcast,140,2013-03-03 15:15:00
7:35 AM,50.0,50.0,100,30.12,7.0,SSE,6.9,-,N/A,,Overcast,150,2013-03-03 15:35:00
7:55 AM,50.0,50.0,100,30.12,8.0,SE,9.2,-,N/A,,Overcast,140,2013-03-03 15:55:00
8:15 AM,50.0,50.0,100,30.13,8.0,SE,5.8,-,N/A,,Overcast,140,2013-03-03 16:15:00
8:35 AM,51.8,50.0,94,30.13,8.0,SE,3.5,-,N/A,,Scattered Clouds,140,2013-03-03 16:35:00
8:55 AM,51.8,50.0,94,30.13,8.0,ESE,4.6,-,N/A,,Scattered Clouds,120,2013-03-03 16:55:00
9:15 AM,53.6,50.0,88,30.13,9.0,East,3.5,-,N/A,,Scattered Clouds,100,2013-03-03 17:15:00
9:35 AM,53.6,50.0,88,30.13,10.0,Calm,Calm,-,N/A,,Mostly Cloudy,0,2013-03-03 17:35:00
9:55 AM,55.4,50.0,82,30.13,10.0,East,3.5,-,N/A,,Overcast,80,2013-03-03 17:55:00
10:15 AM,55.4,50.0,82,30.13,10.0,Calm,Calm,-,N/A,,Overcast,0,2013-03-03 18:15:00
10:35 AM,57.2,50.0,77,30.13,10.0,Calm,Calm,-,N/A,,Overcast,0,2013-03-03 18:35:00
10:55 AM,57.2,48.2,72,30.12,10.0,Calm,Calm,-,N/A,,Overcast,0,2013-03-03 18:55:00
11:15 AM,57.2,50.0,77,30.12,10.0,Calm,Calm,-,N/A,,Overcast,0,2013-03-03 19:15:00
11:35 AM,59.0,46.4,63,30.12,10.0,NNW,13.8,18.4,N/A,,Overcast,340,2013-03-03 19:35:00
11:55 AM,60.8,46.4,59,30.11,10.0,NW,9.2,17.3,N/A,,Overcast,320,2013-03-03 19:55:00
12:15 PM,62.6,44.6,52,30.10,10.0,NW,16.1,19.6,N/A,,Overcast,320,2013-03-03 20:15:00
12:35 PM,62.6,44.6,52,30.09,10.0,North,15.0,18.4,N/A,,Overcast,350,2013-03-03 20:35:00
12:55 PM,62.6,44.6,52,30.08,10.0,NNW,12.7,19.6,N/A,,Scattered Clouds,330,2013-03-03 20:55:00
1:35 PM,62.6,44.6,52,30.07,10.0,NNW,10.4,-,N/A,,Mostly Cloudy,330,2013-03-03 21:35:00
1:55 PM,62.6,44.6,52,30.07,10.0,NNW,10.4,17.3,N/A,,Overcast,330,2013-03-03 21:55:00
2:15 PM,62.6,42.8,48,30.07,10.0,WNW,9.2,-,N/A,,Overcast,300,2013-03-03 22:15:00
2:35 PM,62.6,44.6,52,30.07,10.0,WNW,8.1,-,N/A,,Overcast,290,2013-03-03 22:35:00
2:55 PM,62.6,44.6,52,30.06,10.0,NW,9.2,-,N/A,,Overcast,320,2013-03-03 22:55:00
3:15 PM,62.6,44.6,52,30.06,10.0,NNW,6.9,-,N/A,,Overcast,330,2013-03-03 23:15:00
3:35 PM,62.6,44.6,52,30.06,10.0,NW,6.9,-,N/A,,Overcast,310,2013-03-03 23:35:00
3:55 PM,62.6,44.6,52,30.05,10.0,NNW,8.1,-,N/A,,Overcast,330,2013-03-03 23:55:00
4:15 PM,62.6,44.6,52,30.05,10.0,NNW,6.9,-,N/A,,Overcast,330,2013-03-04 00:15:00
4:35 PM,62.6,44.6,52,30.06,10.0,NW,4.6,-,N/A,,Overcast,310,2013-03-04 00:35:00
4:55 PM,62.6,46.4,55,30.05,10.0,WNW,5.8,-,N/A,,Overcast,300,2013-03-04 00:55:00
5:15 PM,59.0,48.2,67,30.05,10.0,SW,5.8,-,N/A,,Scattered Clouds,230,2013-03-04 01:15:00
5:35 PM,59.0,48.2,67,30.06,10.0,WSW,3.5,-,N/A,,Partly Cloudy,240,2013-03-04 01:35:00
5:55 PM,57.2,48.2,72,30.06,10.0,SE,11.5,-,N/A,,Scattered Clouds,130,2013-03-04 01:55:00
6:15 PM,53.6,48.2,82,30.06,10.0,SE,11.5,-,N/A,,Clear,140,2013-03-04 02:15:00
6:35 PM,51.8,48.2,88,30.08,10.0,SE,6.9,-,N/A,,Clear,140,2013-03-04 02:35:00
6:55 PM,50.0,48.2,94,30.09,10.0,ESE,6.9,-,N/A,,Partly Cloudy,120,2013-03-04 02:55:00
7:15 PM,50.0,48.2,94,30.10,10.0,Calm,Calm,-,N/A,,Mostly Cloudy,0,2013-03-04 03:15:00
7:35 PM,50.0,48.2,94,30.10,10.0,ESE,4.6,-,N/A,,Overcast,120,2013-03-04 03:35:00
7:55 PM,50.0,48.2,94,30.10,10.0,WNW,3.5,-,N/A,,Overcast,300,2013-03-04 03:55:00
8:15 PM,51.8,48.2,88,30.11,10.0,NNW,6.9,-,N/A,,Overcast,330,2013-03-04 04:15:00
8:35 PM,50.0,48.2,94,30.11,10.0,NW,9.2,-,N/A,,Overcast,310,2013-03-04 04:35:00
8:55 PM,50.0,46.4,87,30.12,10.0,NNW,6.9,-,N/A,,Overcast,330,2013-03-04 04:55:00
9:15 PM,50.0,46.4,87,30.12,10.0,NNW,8.1,-,N/A,,Overcast,340,2013-03-04 05:15:00
9:35 PM,50.0,46.4,87,30.12,10.0,NNW,5.8,-,N/A,,Overcast,330,2013-03-04 05:35:00
9:55 PM,50.0,46.4,87,30.12,10.0,North,6.9,-,N/A,,Overcast,360,2013-03-04 05:55:00
10:15 PM,50.0,46.4,87,30.12,10.0,North,6.9,-,N/A,,Overcast,350,2013-03-04 06:15:00
10:35 PM,50.0,46.4,87,30.13,10.0,North,4.6,-,N/A,,Overcast,360,2013-03-04 06:35:00
10:55 PM,50.0,46.4,87,30.12,10.0,North,6.9,-,N/A,,Overcast,350,2013-03-04 06:55:00
11:15 PM,50.0,46.4,87,30.12,10.0,North,6.9,-,N/A,,Overcast,360,2013-03-04 07:15:00
11:35 PM,50.0,46.4,87,30.13,10.0,North,6.9,-,N/A,,Overcast,350,2013-03-04 07:35:00
11:55 PM,50.0,46.4,87,30.12,10.0,NNW,6.9,-,N/A,,Overcast,340,2013-03-04 07:55:00